Location: Fontenoy
(49.4072°N, 3.2008°E)
Time: 11:37:06
(UTC+00:00)

Cosmos 909 Rocket - Pass Details

Date: 15 May 2026
Orbit: 989 x 2090 km, 65.9° (Epoch: 6 June)

Event Time Altitude Azimuth Distance (km) Brightness Sun altitude
Rises 20:12:01 0° 207° (SSW) 3,780 6.9 -7.1°
Reaches altitude 10° 20:14:38 10° 205° (SSW) 2,779 6.2 -7.4°
Maximum altitude 20:20:53 72° 123° (ESE) 1,044 4.0 -8.2°
Drops below altitude 10° 20:27:21 10° 40° (NE) 2,871 6.5 -9.0°
Sets 20:30:05 0° 39° (NE) 3,914 7.2 -9.3°
